www.pogodaiklimat.ru

Погода и климат >> Архив погоды >> Швейцария >> Бад-Рагац


ПОГОДА в Бад-Рагаце

  • Прогноз погоды в Бад-Рагаце
  • Монитор погоды в Бад-Рагаце

АРХИВ ПОГОДЫ в Бад-Рагаце

Время (UTC), дата Ветер
(напр.,м/с)
 
Видим.   Явления Облачность Т
(С)
Тd
(С)
f
(%)
Тe
(С)
Тes
(С)
Комфортность P
(гПа)
Po
(гПа)
Тmin
(С)
Tmax
(С)
R
(мм)
R24
(мм)
S
(см)
16 16.08 СЗ 3
{6}
н/о н/о +22.5 +13.0 55 +25 +25 комфорт 1015.2 959.1
17 16.08 СЗ 4
{8}
н/о н/о +21.1 +10.5 51 +23 +23 комфорт 1015.3 958.9
18 16.08 З 2
{8}
н/о н/о +19.7 +10.9 57 +22 +22 комфорт 1015.9 959.2 +23.1
19 16.08 В 1
{4}
н/о н/о +16.5 +12.4 77 +17 +17 1016.7 959.4
20 16.08 ЮВ 2
{5}
н/о н/о +16.5 +12.3 76 +17 +17 1017.3 959.9
21 16.08 ЮВ 2
{5}
н/о н/о +14.8 +12.2 84 +15 +15 1017.6 959.9
22 16.08 В 1
{4}
н/о н/о +14.1 +12.0 87 +14 +14 1018.1 960.2
23 16.08 ЮВ 2
{4}
н/о н/о +15.7 +11.7 77 +16 +16 1017.4 959.9
00 17.08 ЮВ 2
{6}
н/о н/о +16.1 +11.2 73 +16 +16 1017.0 959.6
01 17.08 Ю 2
{4}
н/о н/о +16.5 +11.0 70 +17 +17 1017.1 959.7
02 17.08 ЮВ 2
{6}
н/о н/о +15.4 +11.2 76 +16 +16 1017.1 959.5
03 17.08 ЮВ 2
{6}
н/о н/о +15.4 +11.0 75 +16 +16 1016.7 959.1
04 17.08 Ю 2
{5}
н/о н/о +14.7 +11.1 79 +15 +15 1017.0 959.3
05 17.08 ЮВ 3
{7}
н/о н/о +15.2 +11.2 77 +15 +15 1016.9 959.3
06 17.08 ЮВ 1
{7}
н/о н/о +16.2 +11.5 74 +18 +18 1016.8 959.4 +13.9
07 17.08 Ю 3
{6}
н/о н/о +17.0 +12.0 72 +17 +17 1016.9 959.6
08 17.08 ЮВ 3
{7}
н/о н/о +19.4 +11.8 61 +21 +21 комфорт 1015.8 959.1
09 17.08 ЮВ 3
{7}
н/о н/о +21.1 +12.3 57 +23 +23 комфорт 1015.1 958.8
10 17.08 В 2
{5}
н/о н/о +21.5 +13.0 58 +24 +24 комфорт 1014.9 958.6
11 17.08 СЗ 3
{4}
н/о н/о +21.7 +15.5 68 +25 +25 комфорт 1014.8 958.6
12 17.08 З 3
{7}
н/о н/о +22.3 +15.0 63 +26 +26 жарко 1014.3 958.2
13 17.08 СЗ 2
{4}
н/о н/о +22.7 +15.2 63 +27 +27 душно 1013.5 957.6
14 17.08 СЗ 2
{3}
н/о н/о +23.5 +14.7 58 +26 +26 жарко 1013.2 957.4
15 17.08 СЗ 1
{4}
н/о н/о +22.9 +15.7 64 +27 +27 душно 1012.9 957.0
16 17.08 СЗ 1
{2}
н/о н/о +22.7 +15.6 64 +27 +27 душно 1012.9 957.0
17 17.08 З 2
{2}
н/о н/о +21.4 +16.3 73 +25 +25 комфорт 1013.1 956.9
18 17.08 СВ 1
{4}
н/о н/о +20.8 +16.4 76 +26 +26 душно 1013.5 957.2 +23.5
19 17.08 В 1
{2}
н/о н/о +19.1 +16.1 83 +22 +22 комфорт 1014.0 957.3
20 17.08 В 1
{2}
н/о н/о +18.5 +16.1 86 +20 +20 1014.3 957.5
21 17.08 ЮВ 2
{2}
н/о н/о +18.4 +15.8 85 +20 +20 1014.3 957.5
22 17.08 ЮВ 2
{4}
н/о н/о +19.0 +15.5 80 +21 +21 комфорт 1014.1 957.4
23 17.08 ЮВ 3
{5}
н/о н/о +18.7 +15.2 80 +20 +20 1014.0 957.2
00 18.08 ЮВ 3
{7}
н/о н/о +18.8 +14.6 77 +20 +20 1013.8 957.1
01 18.08 ЮВ 4
{7}
н/о н/о +18.9 +13.5 71 +20 +20 1013.5 956.8
02 18.08 ЮВ 4
{7}
н/о н/о +18.7 +13.1 70 +19 +19 1013.4 956.7
03 18.08 ЮВ 4
{9}
н/о н/о +18.4 +12.3 68 +19 +19 1013.0 956.2
04 18.08 ЮВ 4
{9}
н/о н/о +17.7 +11.9 69 +18 +18 1013.2 956.3
05 18.08 ЮВ 2
{8}
н/о н/о +17.2 +12.0 71 +18 +18 1013.6 956.6
06 18.08 ЮВ 2
{9}
н/о н/о +18.0 +11.8 67 +19 +19 1013.7 956.8 +17.1
07 18.08 ЮВ 3
{6}
н/о н/о +20.1 +13.3 65 +23 +23 комфорт 1012.9 956.5
08 18.08 ЮВ 4
{7}
н/о н/о +22.2 +12.7 55 +25 +25 комфорт 1012.0 956.0
09 18.08 ЮВ 2
{7}
н/о н/о +24.3 +13.1 50 +26 +26 жарко 1010.9 955.4
10 18.08 Ю 2
{5}
н/о н/о +26.2 +14.1 47 +28 +28 жарко 1009.7 954.6
11 18.08 СЗ 2
{4}
н/о н/о +27.6 +17.8 55 +32 +32 очень
душно
1008.8 954.1
12 18.08 СЗ 2
{7}
н/о н/о +28.9 +16.4 47 +32 +32 душно 1008.1 953.6
13 18.08 СЗ 2
{5}
н/о н/о +29.7 +17.0 46 +33 +33 душно 1007.6 953.3
14 18.08 З 3
{5}
н/о н/о +30.0 +17.5 47 +34 +34 очень
душно
1007.6 953.4
15 18.08 З 2
{5}
н/о н/о +29.8 +19.6 54 +36 +36 очень
душно
1007.4 953.1
16 18.08 Ю 3
{4}
н/о н/о +30.8 +14.9 38 +33 +33 душно 1007.1 953.0
17 18.08 З 4
{6}
н/о н/о +28.4 +15.9 47 +32 +32 душно 1007.8 953.3
18 18.08 ЮВ 2
{6}
н/о н/о +24.8 +15.6 57 +28 +28 жарко 1009.0 953.7 +31.4
19 18.08 ЮВ 2
{4}
н/о н/о +23.0 +15.3 62 +27 +27 душно 1009.8 954.1
20 18.08 ЮВ 2
{4}
н/о н/о +22.6 +14.4 60 +26 +26 жарко 1010.6 954.8
21 18.08 ЮВ 4
{8}
н/о н/о +24.8 +12.8 47 +27 +27 жарко 1010.3 954.9
22 18.08 Ю 2
{9}
н/о н/о +24.1 +12.8 49 +26 +26 жарко 1011.2 955.7
23 18.08 СЗ 2
{5}
н/о н/о +20.8 +14.8 69 +25 +25 комфорт 1013.7 957.4
00 19.08 З 8
{16}
н/о н/о +22.1 +14.2 61 +25 +25 комфорт 1015.3 959.1
01 19.08 З 7
{14}
н/о н/о +19.6 +14.4 72 +21 +21 комфорт 1016.4 959.7
02 19.08 СЗ 5
{12}
н/о н/о +18.1 +15.5 85 +18 +18 1017.3 960.2
03 19.08 ЮВ 2
{14}
н/о н/о +17.0 +16.4 96 +18 +18 1016.7 959.5 6
04 19.08 ЮВ 2
{4}
н/о н/о +16.9 +16.2 96 +17 +17 1017.2 959.9 1
05 19.08 СЗ 2
{3}
н/о н/о +16.6 +16.3 98 +17 +17 1018.1 960.7 0.4
06 19.08 З 1
{14}
н/о н/о +17.1 +16.1 94 +18 +18 1018.2 960.9 +16.6 0.4
07 19.08 В 1
{6}
н/о н/о +17.4 +16.0 91 +18 +18 1018.1 960.9 0.1
08 19.08 С 1
{3}
н/о н/о +17.5 +16.9 96 +19 +19 1018.4 961.2
09 19.08 СВ 1
{6}
н/о н/о +19.5 +16.8 84 +23 +23 комфорт 1017.7 960.9
10 19.08 З 2
{3}
н/о н/о +20.8 +17.6 82 +25 +25 комфорт 1017.2 960.7
11 19.08 СЗ 2
{4}
н/о н/о +21.0 +16.7 76 +26 +26 душно 1017.0 960.5
12 19.08 СЗ 2
{6}
н/о н/о +22.6 +16.9 70 +27 +27 душно 1016.3 960.2
13 19.08 СЗ 5
{7}
н/о н/о +22.5 +15.5 65 +26 +26 жарко 1016.6 960.4
14 19.08 СЗ 4
{7}
н/о н/о +22.4 +16.9 71 +27 +27 душно 1016.3 960.1
15 19.08 З 2
{7}
н/о н/о +21.9 +17.1 74 +26 +26 душно 1017.3 961.0
16 19.08 ЮВ 3
{4}
н/о н/о +21.7 +17.7 78 +26 +26 душно 1017.2 960.9
17 19.08 ЮВ 1
{4}
н/о н/о +20.7 +18.3 86 +26 +26 душно 1017.6 961.0
18 19.08 СЗ 2
{7}
н/о н/о +20.5 +16.4 77 +24 +24 комфорт 1018.0 961.4 +23.7
19 19.08 ЮВ 2
{3}
н/о н/о +19.2 +17.5 90 +22 +22 комфорт 1018.8 961.9
20 19.08 ЮВ 1
{2}
н/о н/о +18.6 +17.8 95 +21 +21 комфорт 1019.3 962.2 0.3
21 19.08 СЗ 3
{6}
н/о н/о +18.4 +16.2 87 +19 +19 1019.8 962.7 0.1
22 19.08 З 3
{7}
н/о н/о +17.6 +15.8 89 +18 +18 1020.5 963.2 2
23 19.08 ЮВ 1
{4}
н/о н/о +17.3 +16.2 93 +18 +18 1021.0 963.6 0.4
00 20.08 З 1
{7}
н/о н/о +17.3 +16.7 96 +19 +19 1020.8 963.4 0.1
01 20.08 СЗ 1
{4}
н/о н/о +17.2 +16.3 94 +18 +18 1020.6 963.2
02 20.08 СВ 1
{2}
н/о н/о +16.6 +16.4 99 +18 +18 1020.1 962.6 0.1
03 20.08 СЗ 2
{4}
н/о н/о +16.9 +16.5 97 +17 +17 1020.2 962.7
04 20.08 З 2
{5}
н/о н/о +17.1 +15.9 93 +17 +17 1020.4 963.0
05 20.08 ЮВ 2
{4}
н/о н/о +16.6 +16.3 98 +17 +17 1020.6 963.1 3
06 20.08 ЮВ 1
{5}
н/о н/о +17.0 +16.6 97 +18 +18 1020.4 962.9 +16.5 1
07 20.08 ЮВ 2
{5}
н/о н/о +17.3 +16.2 93 +18 +18 1020.3 962.9 0.6
08 20.08 ЮВ 2
{4}
н/о н/о +17.6 +16.5 93 +18 +18 1020.2 962.9 0.2
09 20.08 З 2
{5}
н/о н/о +17.1 +16.5 96 +17 +17 1020.9 963.4 2
10 20.08 З 2
{4}
н/о н/о +17.1 +16.7 97 +18 +18 1020.9 963.4 5
11 20.08 З 3
{6}
н/о н/о +17.1 +16.1 94 +17 +17 1020.6 963.2 2
12 20.08 З 5
{8}
н/о н/о +16.4 +15.4 94 +15 +15 1021.3 963.7 4
13 20.08 СЗ 5
{12}
н/о н/о +15.4 +13.4 88 +14 +14 1021.6 963.8 3
14 20.08 З 6
{10}
н/о н/о +15.8 +13.2 85 +14 +14 1022.1 964.3 0.2
15 20.08 З 6
{12}
н/о н/о +15.1 +13.7 91 +13 +13 1023.4 965.4 2
16 20.08 З 6
{11}
н/о н/о +14.5 +13.1 91 +13 +13 1023.9 965.7 5
17 20.08 СЗ 5
{11}
н/о н/о +14.1 +13.3 95 +12 +12 1024.5 966.2 2
18 20.08 СЗ 5
{13}
н/о н/о +14.2 +13.2 94 +13 +13 1025.4 967.1 +17.8 8
19 20.08 З 6
{11}
н/о н/о +13.9 +12.8 93 +12 +12 1026.9 968.4 6
20 20.08 З 7
{11}
н/о н/о +13.6 +12.7 94 +11 +11 1027.6 969.0 4
21 20.08 З 5
{11}
н/о н/о +13.4 +12.3 93 +11 +11 1028.0 969.4 5
22 20.08 З 5
{9}
н/о н/о +12.8 +11.2 90 +11 +11 1028.0 969.3 5
23 20.08 З 4
{6}
н/о н/о +12.4 +11.1 92 +11 +11 1028.6 969.7 7
00 21.08 З 3
{11}
н/о н/о +12.2 +11.3 94 +10 +10 1028.3 969.4 3
01 21.08 ЮВ 1
{4}
н/о н/о +12.1 +11.7 97 +12 +12 1028.1 969.2 0.3
02 21.08 штиль 0
{2}
н/о н/о +12.0 +11.8 99 +11 +11 1028.6 969.7
03 21.08 СЗ 1
{4}
н/о н/о +12.3 +11.3 94 +12 +12 1028.6 969.7
04 21.08 ЮВ 1
{2}
н/о н/о +12.3 +11.6 95 +12 +12 1028.5 969.6
05 21.08 штиль 0
{1}
н/о н/о +12.1 +12.0 99 +11 +11 1028.6 969.7
06 21.08 ЮВ 1
{4}
н/о н/о +12.6 +12.0 96 +12 +12 1028.4 969.6 +11.7
07 21.08 В 1
{2}
н/о н/о +13.9 +11.9 88 +14 +14 1028.2 969.7
08 21.08 ЮВ 1
{3}
н/о н/о +14.4 +11.8 84 +15 +15 1027.8 969.4
09 21.08 СЗ 1
{3}
н/о н/о +16.5 +11.9 74 +17 +17 1026.9 969.0
10 21.08 С 1
{3}
н/о н/о +16.4 +11.1 71 +17 +17 1026.3 968.4
11 21.08 З 2
{5}
н/о н/о +18.2 +11.9 67 +19 +19 1025.4 967.9
12 21.08 З 3
{6}
н/о н/о +19.5 +12.9 66 +21 +21 комфорт 1024.6 967.4
13 21.08 С 4
{8}
н/о н/о +20.5 +12.7 61 +23 +23 комфорт 1024.1 967.1
14 21.08 С 4
{9}
н/о н/о +20.1 +12.5 62 +22 +22 комфорт 1023.6 966.6
15 21.08 СЗ 6
{13}
н/о н/о +19.3 +12.5 65 +20 +20 1023.7 966.5
16 21.08 СЗ 5
{12}
н/о н/о +18.9 +12.1 65 +19 +19 1023.9 966.6
17 21.08 СЗ 3
{9}
н/о н/о +18.5 +12.5 68 +19 +19 1023.8 966.5
18 21.08 З 3
{13}
н/о н/о +18.3 +12.1 67 +19 +19 1024.0 966.6 +20.8
19 21.08 СЗ 1
{5}
н/о н/о +17.2 +13.1 77 +19 +19 1024.7 967.0
20 21.08 В 1
{3}
н/о н/о +17.2 +12.7 75 +18 +18 1024.5 966.9
21 21.08 ЮВ 2
{5}
н/о н/о +16.3 +13.5 83 +17 +17 1024.5 966.7
22 21.08 СЗ 1
{2}
н/о н/о +14.6 +13.4 93 +15 +15 1024.6 966.4
23 21.08 СЗ 1
{2}
н/о н/о +15.4 +12.9 85 +16 +16 1024.1 966.1
00 22.08 СЗ 1
{5}
н/о н/о +15.0 +12.5 85 +16 +16 1024.1 966.0
01 22.08 СВ 1
{2}
н/о н/о +13.8 +12.5 92 +15 +15 1024.3 966.0
02 22.08 штиль 0
{1}
н/о н/о +12.5 +12.2 98 +12 +12 1024.4 965.8
03 22.08 В 1
{2}
н/о н/о +12.2 +12.1 99 +13 +13 1024.5 965.8
04 22.08 В 1
{2}
н/о н/о +12.9 +12.2 96 +14 +14 1024.0 965.5
05 22.08 СЗ 1
{2}
н/о н/о +13.0 +12.4 96 +14 +14 1024.2 965.7
06 22.08 ЮВ 1
{2}
н/о н/о +13.9 +12.8 93 +14 +14 1024.4 966.1 +12.2
07 22.08 СЗ 2
{3}
н/о н/о +15.4 +13.5 88 +16 +16 1024.1 966.1
08 22.08 З 4
{5}
н/о н/о +16.6 +13.6 82 +16 +16 1024.1 966.4
09 22.08 СЗ 3
{5}
н/о н/о +18.0 +14.4 79 +18 +18 1023.8 966.4
10 22.08 З 4
{7}
н/о н/о +18.8 +15.2 80 +20 +20 1023.5 966.2
11 22.08 СЗ 5
{7}
н/о н/о +20.3 +15.6 74 +23 +23 комфорт 1022.9 966.0
12 22.08 СЗ 5
{8}
н/о н/о +19.2 +14.4 74 +20 +20 1023.1 965.9
13 22.08 СЗ 4
{10}
н/о н/о +19.2 +14.9 76 +21 +21 комфорт 1023.2 966.0
14 22.08 СЗ 4
{8}
н/о н/о +18.7 +14.4 76 +19 +19 1023.3 966.0
15 22.08 СЗ 4
{10}
н/о н/о +18.8 +14.7 77 +20 +20 1023.4 966.1
16 22.08 СЗ 4
{8}
н/о н/о +18.3 +14.4 78 +19 +19 1023.7 966.3
17 22.08 СЗ 3
{6}
н/о н/о +17.8 +14.6 82 +18 +18 1024.1 966.6
18 22.08 СЗ 3
{10}
н/о н/о +17.6 +14.5 82 +18 +18 1024.8 967.2 +20.3
19 22.08 СЗ 2
{5}
н/о н/о +17.0 +14.8 87 +18 +18 1025.5 967.8
20 22.08 З 1
{4}
н/о н/о +17.0 +14.6 86 +18 +18 1026.0 968.2
21 22.08 В 1
{5}
н/о н/о +16.7 +15.0 90 +18 +18 1026.0 968.2
22 22.08 В 1
{2}
н/о н/о +16.4 +15.1 92 +18 +18 1025.8 967.9
23 22.08 С 1
{1}
н/о н/о +15.9 +15.1 95 +17 +17 1025.7 967.7
00 23.08 штиль 0
{5}
н/о н/о +15.0 +14.7 98 +15 +15 1025.4 967.3
01 23.08 В 1
{1}
н/о н/о +14.4 +14.0 97 +15 +15 1025.3 967.0
02 23.08 С 1
{1}
н/о н/о +13.5 +13.4 99 +14 +14 1025.2 966.8
03 23.08 В 1
{2}
н/о н/о +13.0 +12.9 99 +14 +14 1025.1 966.6
04 23.08 З 1
{2}
н/о н/о +12.1 +11.7 97 +13 +13 1025.1 966.4
05 23.08 СЗ 1
{1}
н/о н/о +12.1 +12.0 99 +13 +13 1025.7 966.9
06 23.08 СВ 1
{2}
н/о н/о +13.3 +13.1 99 +14 +14 1025.5 967.0 +11.7
07 23.08 З 1
{2}
н/о н/о +15.8 +14.3 91 +16 +16 1024.7 966.8
08 23.08 З 1
{2}
н/о н/о +17.8 +14.8 83 +19 +19 1024.0 966.5
09 23.08 З 3
{5}
н/о н/о +19.5 +15.4 77 +22 +22 комфорт 1023.2 966.1
10 23.08 З 3
{6}
н/о н/о +20.1 +14.9 72 +23 +23 комфорт 1022.8 965.8
11 23.08 С 3
{6}
н/о н/о +21.4 +15.3 68 +25 +25 комфорт 1022.2 965.5
12 23.08 СЗ 4
{8}
н/о н/о +21.4 +14.7 66 +24 +24 комфорт 1021.9 965.2
13 23.08 СЗ 5
{11}
н/о н/о +21.2 +15.0 68 +24 +24 комфорт 1021.5 964.8
14 23.08 СЗ 6
{10}
н/о н/о +20.2 +14.9 72 +22 +22 комфорт 1021.6 964.7

 

Местоположение метеостанции Бад-Рагац (Швейцария): широта 47.01 долгота 9.50 высота над уровнем моря 496 м.

В архиве по умолчанию представлена погода в Бад-Рагаце за последнюю неделю. Архивные данные за месяц целиком и за предыдущие месяцы, начиная с января 2011 года, Вы можете получить, выбрав интересующий диапазон дат из раскрывающегося списка и нажав кнопку "Ввод!".


*Определитесь, кто Вы:
робот инопланетянин человек

Внимание! Время в таблицах - всемирное. Для получения местного времени необходимо прибавить поправку, которая равна 1 ч.

Смотрите также архив погоды в соседних городах и на ближайших метеорологических станциях:

Погода в Ширсе (Швейцария) (13 км)
Погода в Вадуце (Лихтенштейн) (13 км)
Погода в Куре (Швейцария) (16 км)
Погода в Эльме (Швейцария) (26 км)
Погода на Зентисе (Швейцария) (29 км)
Погода в Арозе (Швейцария) (29 км)
Погода в Фальбелле (Швейцария) (29 км)
Погода на Крап Мазегне (Швейцария) (30 км)
Погода в Фельдкирхе (Австрия) (30 км)
Погода на Вайссфлуйохе (Швейцария) (31 км)

Пояснения к столбцам:

Ветер - указаны скорость ветра в м/с - средняя за 10 мин, порывы в срок и между сроками (в фигурных скобках) и направление, откуда дует ветер: С - северный, СВ - северо-восточный, В - восточный, ЮВ - юго-восточный, Ю - южный, ЮЗ - юго-западный, З - западный, СЗ - северо-западный.
Видимость - горизонтальная дальность видимости в метрах или километрах. При видимости от 1 до 10 км при отсутствии осадков обычно наблюдается дымка, при ухудшении видимости до 1 км и менее - туман. В сухую погоду видимость может ухудшаться дымом, пылью или мглою.
Явления - указаны атмосферные явления, наблюдавшиеся в срок или в последний час перед сроком; фигурными скобками обозначены явления, наблюдавшиеся между сроками (за 1-3 часа до срока); квадратными скобками обозначены град или гололедные отложения с указанием их диаметра в мм.
Облачность - указаны через наклонную черту общая и нижняя облачность в баллах и высота нижней границы облаков в метрах; квадратными скобками обозначены формы облаков: Ci - перистые, Cs - перисто-слоистые, Cc - перисто-кучевые, Ac - высококучевые, As - высокослоистые, Sc - слоисто-кучевые, Ns - слоисто-дождевые, Cu - кучевые, Cb - кучево-дождевые. Подробнее классификацию облаков см. в Атласе облаков (PDF).
T - Температура воздуха - температура, измеренная на высоте 2 м над землей.
Td - Температура точки росы - температура, при понижении до которой содержащийся в воздухе водяной пар достигнет насыщения.
f - Относительная влажность воздуха - влажноcть воздуха, измеренная на высоте 2 м над землей.
Te - Эффективная температура - температура, которую ощущает одетый по сезону человек в тени. Характеристика душности погоды. При расчете учитывается влияние влажности воздуха и скорости ветра на теплоощущения человека.
Tes - Эффективная температура на солнце - температура, которую ощущает человек, с поправкой на солнечный нагрев. Характеристика знойности погоды. Зависит от высоты солнца над горизонтом, облачности и скорости ветра. Ночью, в пасмурную погоду, а также при ветре 12 м/с и более поправка равна нулю.
P - Атмосферное давление - приведенное к уровню моря атмосферное давление.
Po - Атмосферное давление - измеренное на уровне метеостанции атмосферное давление.
Tmin - Минимальная температура - минимум температуры воздуха на высоте 2 м над землей.
Tmax - Максимальная температура - максимум температуры воздуха на высоте 2 м над землей.
R - Количество осадков - Количество выпавших осадков за период времени, мм. При наведении курсора мыши на число - период времени, за который выпало указанное количество осадков.
R24 - Количество осадков - Количество выпавших осадков за 24 часа, мм.
S - Снежный покров - Высота снежного покрова, см. При наведении курсора мыши на число - состояние снежного покрова и степень покрытия местности в баллах.